Flag for Russia Weather past 2 weeks in Ryazan, Russia

Now
81 °F

Passing clouds.


Feels Like: 79 °F
Forecast: 54 / 82 °F
Wind: 10 mph from North

Location: Moscow / Domodedovo

Current Time: Jul 23, 2014 at 5:03:12 PM

Latest Report: Jul 23, 2014 at 4:30 PM


Visibility: N/A

Pressure: 30.07 "Hg

Humidity: 26%

Dew point: 43 °F

Location of RyazanLocation

Historic Weather in Ryazan — Graph

°F

Ryazan temperature yesterday

Maximum temperature yesterday: 77 °F (at 4:30 PM)
Minimum temperature yesterday: 50 °F (at 4:00 AM)
Average temperature yesterday: 65 °F

Past Weeks' High & Low Weather Summary

 TemperatureHumidityPressure
High90 °F (Jul 16, 3:30 PM)100% (Jul 9, 3:00 AM)30.21 "Hg (Jul 9, 3:00 AM)
Low48 °F (Jul 23, 4:00 AM)20% (Jul 14, 4:00 PM)29.80 "Hg (Jul 10, 5:30 AM)
Average68 °F64%30.05 "Hg
* Reported Jul 8 4:00 PM — Jul 23 4:00 PM, Ryazan, Weather by CustomWeather, © 2014

Note: Actual official high and low records may vary slightly from our data, if they occured in-between our weather recording intervals... More about our weather records

Advertising

Ryazan weather history for previous 24 hours

 ConditionsComfort  
Time TempWeatherWind HumidityBarometerVisibility
4:00 PM
Jul 23
81 °FPassing clouds.10 mph28%30.07 "HgN/A
3:30 PM81 °FPassing clouds.10 mph28%30.07 "HgN/A
3:00 PM77 °FPassing clouds.13 mph34%30.07 "HgN/A
2:30 PM81 °FPassing clouds.10 mph28%30.07 "HgN/A
2:00 PM81 °FSunny.10 mph32%30.09 "Hg10 mi
1:30 PM77 °FPassing clouds.8 mph36%30.09 "HgN/A
1:00 PM75 °FPassing clouds.10 mph41%30.09 "HgN/A
12:30 PM77 °FPassing clouds.8 mph39%30.09 "HgN/A
12:00 PM75 °FPassing clouds.10 mph41%30.09 "HgN/A
10:00 AM73 °FPassing clouds.8 mph47%30.09 "HgN/A
9:00 AM70 °FPassing clouds.6 mph53%30.12 "HgN/A
8:30 AM66 °FPassing clouds.3 mph64%30.12 "HgN/A
8:00 AM61 °FPassing clouds.3 mph83%30.09 "HgN/A
7:30 AM57 °FPassing clouds.3 mph88%30.09 "HgN/A
7:00 AM54 °FSunny.1 mph88%30.09 "Hg10 mi
6:30 AM50 °FPassing clouds.3 mph100%30.09 "HgN/A
6:00 AM48 °FClear.1 mph94%30.09 "Hg10 mi
5:30 AM48 °FClear.1 mph94%30.09 "Hg10 mi
5:00 AM48 °FClear.1 mph94%30.09 "Hg10 mi
4:30 AM48 °FClear.No wind94%30.09 "Hg10 mi
4:00 AM48 °FClear.No wind94%30.09 "Hg10 mi
3:00 AM50 °FClear.No wind94%30.09 "Hg10 mi
8:30 PM
Jul 22
72 °FSunny.6 mph44%30.04 "Hg10 mi
8:00 PM73 °FPassing clouds.6 mph33%30.04 "HgN/A
7:30 PM75 °FSunny.8 mph31%30.04 "Hg10 mi
7:00 PM75 °FPassing clouds.8 mph29%30.04 "HgN/A
6:30 PM75 °FPassing clouds.8 mph29%30.04 "HgN/A
6:00 PM75 °FPassing clouds.8 mph29%30.04 "HgN/A
5:30 PM75 °FSunny.8 mph29%30.04 "Hg10 mi
5:00 PM77 °FPassing clouds.8 mph24%30.04 "HgN/A
Weather by CustomWeather, © 2014

See weather overviewHow to use our weather pages